Location: Baix
(44.7118°N, 4.7648°E)
Time: 22:55:31
(UTC+00:00)

Vanguard 2 Rocket - Visible Passes

Search period start: 25 November 2020 00:00
Search period end: 05 December 2020 00:00
Orbit: 554 x 3326 km, 32.9° (Epoch: 25 November)

Date Brightness Start Highest point End Pass type
(mag) Time Alt. Az. Time Alt. Az. Time Alt. Az.
25 Nov 11.4 05:57:40 10° S 06:11:04 22° SE 06:23:09 10° E visible
26 Nov 11.4 05:00:14 10° SSE 05:10:08 16° SE 05:19:43 10° ESE visible
27 Nov 11.2 06:08:16 10° SSW 06:24:05 31° SSE 06:38:20 10° E visible
28 Nov 11.2 05:09:22 10° S 05:22:57 24° SE 05:36:13 10° E visible
29 Nov 11.2 04:12:07 10° SSE 04:22:07 17° SE 04:32:23 10° ESE visible
29 Nov 10.9 06:19:54 10° SSW 06:37:08 38° SSE 06:52:48 10° E visible
30 Nov 11.0 05:20:16 10° SSW 05:35:47 32° SE 05:51:13 10° E visible
01 Dec 11.0 04:21:41 10° S 04:34:45 24° SE 04:48:37 10° E visible
02 Dec 11.0 03:24:45 10° SSE 03:34:07 17° SE 03:44:19 10° E visible
02 Dec 10.7 05:32:08 10° SSW 05:48:41 39° SSE 06:05:34 10° E visible
03 Dec 10.8 04:32:52 10° SSW 04:47:26 32° SE 05:03:30 10° E visible
04 Dec 10.7 03:34:37 10° S 03:46:37 24° SE 04:00:26 10° E visible
04 Dec 10.5 05:44:37 10° SW 06:01:42 46° SSE 06:19:33 10° E visible
